IRIDIUM 8 [+] 1 24792U 97020A 13140.30667776 .00000399 00000-0 13557-3 0 3565 2 24792 86.3992 220.9713 0002318 110.0729 250.0716 14.34220462839796 IRIDIUM 7 [+] 1 24793U 97020B 13140.31297907 .00000397 00000-0 13477-3 0 3550 2 24793 86.3997 221.1698 0002351 110.8793 314.3468 14.34212896839793 IRIDIUM 6 [+] 1 24794U 97020C 13140.29400156 .00000412 00000-0 14004-3 0 1553 2 24794 86.3995 221.1411 0002394 117.1548 242.9892 14.34220446839797 IRIDIUM 5 [+] 1 24795U 97020D 13140.28766445 .00000414 00000-0 14078-3 0 5488 2 24795 86.3992 221.2477 0002917 106.2900 253.8616 14.34220302839875 IRIDIUM 4 [-] 1 24796U 97020E 13140.37697457 .00000303 00000-0 10078-3 0 3925 2 24796 86.3991 220.7882 0002184 109.4840 296.4197 14.34365918839828 IRIDIUM 914 [-] 1 24836U 97030A 13140.33779020 .00000327 00000-0 10156-3 0 9226 2 24836 86.3963 241.5547 0001075 69.9271 349.0127 14.37959582834920 IRIDIUM 12 [+] 1 24837U 97030B 13140.38569919 .00000399 00000-0 13528-3 0 3641 2 24837 86.3975 252.3686 0002282 108.8345 314.2945 14.34219589833557 IRIDIUM 10 [+] 1 24839U 97030D 13140.37227784 .00000402 00000-0 13652-3 0 3668 2 24839 86.3974 252.3632 0002288 110.1123 309.2265 14.34220019833565 IRIDIUM 13 [+] 1 24840U 97030E 13140.39212884 .00000390 00000-0 13236-3 0 3155 2 24840 86.3977 252.4633 0002265 111.9045 311.6907 14.34220084833550 IRIDIUM 16 [-] 1 24841U 97030F 13140.42852733 .00000238 00000-0 75315-4 0 3386 2 24841 86.4057 253.0758 0003921 110.4761 317.7842 14.35830934833888 IRIDIUM 911 [-] 1 24842U 97030G 13140.36372701 .00000414 00000-0 11556-3 0 167 2 24842 86.4481 254.7026 0013964 0.8286 56.3938 14.43880963838027 IRIDIUM 15 [+] 1 24869U 97034A 13140.44673336 .00000311 00000-0 10396-3 0 4102 2 24869 86.3953 284.0547 0002265 106.2985 286.7950 14.34219134830539 IRIDIUM 17 [-] 1 24870U 97034B 13140.47269752 .00000294 00000-0 96497-4 0 3263 2 24870 86.3959 283.5696 0002393 110.3579 281.4113 14.34958992830617 IRIDIUM 920 [-] 1 24871U 97034C 13140.48190630 .00000370 00000-0 11434-3 0 9610 2 24871 86.3977 273.3180 0012228 185.0487 242.6998 14.38622591832246 IRIDIUM 18 [+] 1 24872U 97034D 13140.47205930 .00000311 00000-0 10406-3 0 3426 2 24872 86.3956 284.2372 0002386 111.1840 248.9611 14.34219439830535 IRIDIUM 921 [-] 1 24873U 97034E 13140.36485630 .00004623 00000-0 35598-3 0 4657 2 24873 86.3886 45.9356 0010432 58.1087 54.2732 15.01381961863832 IRIDIUM 26 [-] 1 24903U 97043A 13140.48493486 .00000314 00000-0 10447-3 0 4684 2 24903 86.3971 157.7515 0002343 109.6895 39.0529 14.34521514824489 IRIDIUM 25 [+] 1 24904U 97043B 13140.49016058 .00000270 00000-0 89334-4 0 3684 2 24904 86.3967 157.7182 0002375 107.0765 253.0691 14.34215089824449 IRIDIUM 46 [+] 1 24905U 97043C 13140.52417747 .00000166 00000-0 52087-4 0 3802 2 24905 86.3975 158.1176 0002341 108.7497 1.7422 14.34217800824454 IRIDIUM 23 [S] 1 24906U 97043D 13140.50776828 .00000167 00000-0 52679-4 0 3874 2 24906 86.3966 157.6259 0002378 108.0371 45.6581 14.34214992824457 IRIDIUM 22 [+] 1 24907U 97043E 13140.50221461 .00000164 00000-0 51419-4 0 3466 2 24907 86.3979 158.2074 0002343 107.0731 53.7343 14.34217987824458 DUMMY MASS 1 [-] 1 24925U 97048A 13140.11893711 .00000331 00000-0 36141-4 0 5071 2 24925 86.3363 9.5560 0005007 253.5099 267.3479 14.84329382850637 DUMMY MASS 2 [-] 1 24926U 97048B 13140.12745093 .00000302 00000-0 32876-4 0 4957 2 24926 86.3365 10.4249 0005720 263.6025 242.9820 14.84105576850511 IRIDIUM 29 [+] 1 24944U 97051A 13140.13199456 .00000192 00000-0 61671-4 0 3050 2 24944 86.3985 189.4637 0002338 109.0080 251.1370 14.34215076820974 IRIDIUM 32 [+] 1 24945U 97051B 13140.49986994 .00000340 00000-0 11426-3 0 3407 2 24945 86.3985 189.3332 0002310 109.3296 250.8150 14.34217445821041 IRIDIUM 33 [-] 1 24946U 97051C 13140.51842507 .00000267 00000-0 90713-4 0 4374 2 24946 86.3901 189.4897 0009507 63.1171 72.4913 14.32906548820806 IRIDIUM 28 [-] 1 24948U 97051E 13140.46331763 .00000311 00000-0 10285-3 0 1896 2 24948 86.3990 189.3149 0002719 106.4814 21.8169 14.34789434821041 IRIDIUM 30 [+] 1 24949U 97051F 13140.49351976 .00000344 00000-0 11569-3 0 3870 2 24949 86.3987 189.4096 0002359 111.4059 248.7389 14.34220936821026 IRIDIUM 31 [+] 1 24950U 97051G 13140.48718219 .00000350 00000-0 11775-3 0 3526 2 24950 86.3987 189.4165 0001748 88.2618 271.8778 14.34221402821037 IRIDIUM 19 [+] 1 24965U 97056A 13140.26229269 .00000410 00000-0 13928-3 0 3276 2 24965 86.3993 220.9839 0002329 109.5880 250.5567 14.34220100819146 IRIDIUM 35 [+] 1 24966U 97056B 13140.13542055 .00000414 00000-0 14086-3 0 3779 2 24966 86.3993 221.0469 0002381 110.2354 249.9098 14.34219441819104 IRIDIUM 36 [-] 1 24967U 97056C 13140.28954315 .00000296 00000-0 97310-4 0 3097 2 24967 86.4004 220.9454 0002284 104.9203 316.5460 14.34810313819307 IRIDIUM 37 [+] 1 24968U 97056D 13140.31936290 .00000411 00000-0 13975-3 0 3323 2 24968 86.3995 221.1125 0002317 109.7212 250.4234 14.34220873819136 IRIDIUM 34 [+] 1 24969U 97056E 13140.26862990 .00000409 00000-0 13913-3 0 3210 2 24969 86.3994 221.0730 0002342 110.0923 250.0525 14.34220640819129 IRIDIUM 43 [+] 1 25039U 97069A 13140.47995698 .00000351 00000-0 11841-3 0 3324 2 25039 86.3946 284.1832 0002201 101.5467 331.9148 14.34208162812937 IRIDIUM 41 [+] 1 25040U 97069B 13140.46560387 .00000301 00000-0 10056-3 0 3229 2 25040 86.3955 284.1436 0002456 112.5534 279.7296 14.34219124812931 IRIDIUM 40 [+] 1 25041U 97069C 13140.48474654 .00000312 00000-0 10431-3 0 3514 2 25041 86.3955 284.0851 0002274 106.6339 253.5107 14.34219093812955 IRIDIUM 39 [+] 1 25042U 97069D 13140.49109503 .00000345 00000-0 11595-3 0 3297 2 25042 86.3952 284.3455 0002437 121.8178 238.3255 14.34218121812931 IRIDIUM 38 [-] 1 25043U 97069E 13140.46537264 .00000310 00000-0 10145-3 0 3263 2 25043 86.3958 282.8362 0003370 112.1054 328.3218 14.35224116813135 IRIDIUM 42 [+] 1 25077U 97077A 13140.47840276 .00000297 00000-0 98987-4 0 3300 2 25077 86.3957 284.1920 0002272 106.3859 253.7586 14.34219090808793 IRIDIUM 44 [-] 1 25078U 97077B 13140.48535789 .00000356 00000-0 11297-3 0 8187 2 25078 86.3965 277.2151 0003943 107.9217 319.5573 14.37183373809732 IRIDIUM 45 [+] 1 25104U 97082A 13140.51767896 .00000145 00000-0 44551-4 0 2903 2 25104 86.3966 157.6919 0002261 107.0386 2.6582 14.34218108806993 IRIDIUM 24 [-] 1 25105U 97082B 13140.51752593 .00000360 00000-0 11044-3 0 8659 2 25105 86.3926 143.6633 0011728 192.2265 279.7005 14.38904016808700 IRIDIUM 47 [+] 1 25106U 97082C 13140.46842367 .00000169 00000-0 53161-4 0 2695 2 25106 86.3965 157.6460 0002334 117.0661 33.0154 14.34217985806987 IRIDIUM 49 [+] 1 25108U 97082E 13140.68769363 .00000026 00000-0 23731-5 0 2968 2 25108 86.3967 157.6179 0002359 109.1211 26.9284 14.34218027807027 IRIDIUM 52 [+] 1 25169U 98010A 13140.41973324 .00000380 00000-0 12878-3 0 567 2 25169 86.3979 252.5790 0002297 109.3065 293.1063 14.34220620798395 IRIDIUM 56 [+] 1 25170U 98010B 13140.41833300 .00000390 00000-0 13203-3 0 8469 2 25170 86.3982 252.6594 0002273 108.4898 319.3991 14.34219968798374 IRIDIUM 54 [+] 1 25171U 98010C 13140.43691724 .00000391 00000-0 13240-3 0 2910 2 25171 86.3979 252.5844 0002281 109.0058 251.1385 14.34219870798543 IRIDIUM 50 [+] 1 25172U 98010D 13140.41169600 .00000382 00000-0 12926-3 0 3317 2 25172 86.3979 252.5594 0002246 109.2751 317.0751 14.34220820798376 IRIDIUM 53 [+] 1 25173U 98010E 13140.42613630 .00000116 00000-0 34330-4 0 3090 2 25173 86.3979 252.5601 0002253 109.1853 293.5151 14.34218791798383 IRIDIUM 51 [S] 1 25262U 98018A 13140.30024585 .00000406 00000-0 13788-3 0 4455 2 25262 86.3998 221.2489 0002492 113.8427 246.3030 14.34223268797751 IRIDIUM 61 [+] 1 25263U 98018B 13140.32571405 .00000405 00000-0 13737-3 0 2491 2 25263 86.3994 221.0791 0002345 110.2558 249.8890 14.34220431793460 IRIDIUM 55 [+] 1 25272U 98019A 13140.18907753 .00000101 00000-0 28976-4 0 2524 2 25272 86.3987 189.3823 0002352 109.3235 250.8215 14.34215305792649 IRIDIUM 57 [+] 1 25273U 98019B 13140.23348306 .00000344 00000-0 11562-3 0 2873 2 25273 86.3989 189.6044 0002349 109.7190 250.4259 14.34220415792653 IRIDIUM 58 [+] 1 25274U 98019C 13140.23982202 .00000343 00000-0 11539-3 0 1077 2 25274 86.3992 189.7557 0002351 110.9690 249.1757 14.34220965792658 IRIDIUM 59 [+] 1 25275U 98019D 13140.45546041 .00000351 00000-0 11832-3 0 8824 2 25275 86.3987 189.5998 0002250 109.5032 250.6407 14.34222110792688 IRIDIUM 60 [+] 1 25276U 98019E 13140.18274328 .00000347 00000-0 11676-3 0 3322 2 25276 86.3984 189.3914 0002366 108.3774 251.7679 14.34216806792644 IRIDIUM 62 [+] 1 25285U 98021A 13140.49301871 .00000160 00000-0 49944-4 0 3056 2 25285 86.3959 126.1970 0002279 107.2992 252.8453 14.34219372791642 IRIDIUM 63 [+] 1 25286U 98021B 13140.45793837 .00000156 00000-0 48672-4 0 3221 2 25286 86.3964 126.3707 0002137 104.3540 42.0614 14.34219749791634 IRIDIUM 64 [+] 1 25287U 98021C 13140.43593708 .00000161 00000-0 50527-4 0 2558 2 25287 86.3960 126.2501 0002499 95.4563 264.6918 14.34219530791613 IRIDIUM 65 [+] 1 25288U 98021D 13140.47062906 .00000165 00000-0 51694-4 0 2947 2 25288 86.3958 126.1665 0002431 108.2049 38.2151 14.34219348791632 IRIDIUM 66 [+] 1 25289U 98021E 13140.47927957 .00000162 00000-0 50880-4 0 2363 2 25289 86.3958 126.0791 0002271 106.2443 52.0858 14.34219367791639 IRIDIUM 67 [+] 1 25290U 98021F 13140.45495954 .00000155 00000-0 48289-4 0 696 2 25290 86.3959 126.2030 0002280 104.7986 255.3462 14.34219077791643 IRIDIUM 68 [+] 1 25291U 98021G 13140.46130694 .00000158 00000-0 49377-4 0 2925 2 25291 86.3960 126.2910 0002218 106.3848 253.7592 14.34219210791611 IRIDIUM 69 [-] 1 25319U 98026A 13140.48295328 .00000396 00000-0 12533-3 0 979 2 25319 86.3990 151.6168 0003901 111.5874 51.3800 14.37717838789050 IRIDIUM 71 [-] 1 25320U 98026B 13140.52315631 .00000340 00000-0 10530-3 0 8013 2 25320 86.3976 148.2297 0003055 148.0349 21.8006 14.38233428789423 IRIDIUM 70 [+] 1 25342U 98032A 13140.50915986 .00000154 00000-0 47809-4 0 3266 2 25342 86.3964 126.4425 0002245 109.2468 6.9057 14.34219451785721 IRIDIUM 72 [+] 1 25343U 98032B 13140.50248280 .00000159 00000-0 49776-4 0 3094 2 25343 86.3959 126.1550 0002295 105.4515 41.7342 14.34219037785722 IRIDIUM 73 [-] 1 25344U 98032C 13140.49816829 .00000455 00000-0 11738-3 0 1906 2 25344 86.4424 111.6404 0002174 86.5936 62.7245 14.47863273792049 IRIDIUM 74 [S] 1 25345U 98032D 13140.50179587 .00000244 00000-0 67034-4 0 3709 2 25345 86.4472 126.4195 0002222 103.1549 43.9716 14.42951245788078 IRIDIUM 75 [+] 1 25346U 98032E 13140.50887995 .00000150 00000-0 46555-4 0 3317 2 25346 86.3963 126.3511 0002271 105.1842 42.2598 14.34218988786299 IRIDIUM 3 [+] 1 25431U 98048A 13140.49616771 .00000157 00000-0 48879-4 0 2518 2 25431 86.3973 157.9262 0002366 113.4636 48.8749 14.34218478772239 IRIDIUM 76 [+] 1 25432U 98048B 13140.51348581 .00000161 00000-0 50355-4 0 1913 2 25432 86.3968 157.7207 0002027 109.4208 44.1157 14.34221884772221 IRIDIUM 82 [+] 1 25467U 98051A 13140.45303111 .00000350 00000-0 11787-3 0 4242 2 25467 86.3946 284.3038 0002742 105.0374 255.1125 14.34222003773239 IRIDIUM 81 [+] 1 25468U 98051B 13140.44668872 .00000326 00000-0 10921-3 0 2442 2 25468 86.3954 284.0044 0002238 103.1365 257.0081 14.34219142769453 IRIDIUM 80 [+] 1 25469U 98051C 13140.51067477 .00000303 00000-0 10125-3 0 2479 2 25469 86.3958 284.1944 0002269 107.4277 321.0369 14.34216156769465 IRIDIUM 77 [+] 1 25471U 98051E 13140.44492513 .00000306 00000-0 10222-3 0 4234 2 25471 86.3949 283.9459 0002198 120.2358 296.2511 14.34218976774651 IRIDIUM 2 [-] 1 25527U 98066A 13140.34634189 .00004554 00000-0 33064-3 0 7611 2 25527 85.5633 182.2051 0011287 100.9579 344.1046 15.03589761793031 IRIDIUM 86 [+] 1 25528U 98066B 13140.46228764 .00000401 00000-0 13619-3 0 4778 2 25528 86.3970 252.1327 0002452 117.8580 242.2864 14.34220219765983 IRIDIUM 84 [+] 1 25530U 98066D 13140.42422761 .00000412 00000-0 13994-3 0 1258 2 25530 86.3972 252.2876 0002319 110.0366 250.1080 14.34220424763611 IRIDIUM 83 [+] 1 25531U 98066E 13140.45594993 .00000395 00000-0 13385-3 0 2715 2 25531 86.3975 252.3395 0002273 109.5884 250.5558 14.34220412760976 IRIDIUM 20 [+] 1 25577U 98074A 13140.44571004 .00000165 00000-0 51894-4 0 1678 2 25577 86.3966 157.6924 0002376 107.6170 252.5286 14.34221614755050 IRIDIUM 11 [+] 1 25578U 98074B 13140.48716461 .00000137 00000-0 41892-4 0 4096 2 25578 86.3967 157.8911 0002533 106.7153 41.8912 14.34218200764025 IRIDIUM 14 [S] 1 25777U 99032A 13140.48450542 .00000399 00000-0 87904-4 0 4338 2 25777 86.5143 126.2356 0002485 103.2969 50.6511 14.54939646740326 IRIDIUM 21 [+] 1 25778U 99032B 13140.49610244 .00000163 00000-0 51261-4 0 2487 2 25778 86.3959 126.2460 0000950 98.0896 48.8679 14.34219338734730 IRIDIUM 91 [+] 1 27372U 02005A 13140.24019388 .00000343 00000-0 11523-3 0 8525 2 27372 86.4001 189.9333 0004763 89.0607 338.4556 14.34220862598219 IRIDIUM 90 [S] 1 27373U 02005B 13140.38930433 .00000506 00000-0 14552-3 0 8384 2 27373 86.4486 252.2844 0001532 280.2996 79.8032 14.42952163596662 IRIDIUM 94 [S] 1 27374U 02005C 13140.50598058 .00000174 00000-0 55253-4 0 198 2 27374 86.3967 157.9899 0002553 210.9541 296.5917 14.34217507602572 IRIDIUM 95 [+] 1 27375U 02005D 13140.47449479 .00000335 00000-0 11253-3 0 8117 2 27375 86.4000 189.6268 0002274 111.3817 248.7622 14.34221074597539 IRIDIUM 96 [S] 1 27376U 02005E 13140.24300561 .00000385 00000-0 13059-3 0 68 2 27376 87.1951 205.5515 0002229 211.6680 148.4383 14.34235330602704 IRIDIUM 97 [+] 1 27450U 02031A 13140.35109149 .00000383 00000-0 12957-3 0 7129 2 27450 86.3991 221.1785 0004219 84.7480 275.4197 14.34219747576835 IRIDIUM 98 [S] 1 27451U 02031B 13140.49672488 .00000400 00000-0 11357-3 0 8085 2 27451 86.4438 284.5936 0004482 73.5297 352.8468 14.42948818577534